When you browse on this site, cookies collect data to enhance your experience and personalize the content and advertising you see.
Visit our Privacy Policy to learn more. By continuing to use the site, you agree to this use of cookies and data.
  • In Hungary
  • List of Countries
  • For 7 days
  • Water Temperature
  • Weather Map
  • News
  • Weather Widgets
  • user-avatar
    Login

    Hourly Weather Kablovo

    Today, 1 June, Monday

    Time Temperature Precipitation Wind Pressure Humidity
    00:00 +18°C° 0 mm 4 mps 751 mmHg 63%
    01:00 +18°C° 0 mm 4 mps 751 mmHg 65%
    02:00 +17°C° 0 mm 4 mps 751 mmHg 67%
    03:00 +16°C° 0 mm 3 mps 752 mmHg 69%
    04:00 +16°C° 0 mm 3 mps 751 mmHg 70%
    05:00 +17°C° 0 mm 3 mps 752 mmHg 69%
    06:00 +18°C° 0 mm 3 mps 752 mmHg 68%
    07:00 +19°C° 0 mm 4 mps 752 mmHg 66%
    08:00 +20°C° 0 mm 4 mps 752 mmHg 60%
    09:00 +22°C° 0 mm 5 mps 753 mmHg 54%
    10:00 +23°C° 0 mm 6 mps 753 mmHg 46%
    11:00 +25°C° 0 mm 5 mps 753 mmHg 44%
    12:00 +26°C° 0 mm 5 mps 753 mmHg 41%
    13:00 +26°C° 0 mm 5 mps 753 mmHg 39%
    14:00 +26°C° 0 mm 5 mps 753 mmHg 38%
    15:00 +27°C° 0 mm 4 mps 753 mmHg 37%
    16:00 +27°C° 0 mm 4 mps 752 mmHg 36%
    17:00 +26°C° 0 mm 4 mps 752 mmHg 40%
    18:00 +26°C° 0 mm 3 mps 752 mmHg 44%
    19:00 +25°C° 0 mm 2 mps 752 mmHg 48%
    20:00 +23°C° 0 mm 2 mps 752 mmHg 52%
    21:00 +21°C° 0 mm 1 mps 753 mmHg 57%
    22:00 +17°C° 0 mm 0 mps 753 mmHg 61%
    23:00 +19°C° 0 mm 1 mps 753 mmHg 62%

    Tomorrow, 2 June, Tuesday

    Time Temperature Precipitation Wind Pressure Humidity
    00:00 +18°C° 0 mm 1 mps 753 mmHg 63%
    01:00 +18°C° 0 mm 1 mps 753 mmHg 63%
    02:00 +18°C° 0 mm 1 mps 753 mmHg 64%
    03:00 +16°C° 0 mm 1 mps 753 mmHg 65%
    04:00 +16°C° 0 mm 1 mps 753 mmHg 65%
    05:00 +19°C° 0 mm 1 mps 753 mmHg 62%
    06:00 +19°C° 0 mm 2 mps 753 mmHg 58%
    07:00 +21°C° 0 mm 2 mps 753 mmHg 54%
    08:00 +23°C° 0 mm 2 mps 753 mmHg 50%
    09:00 +24°C° 0 mm 3 mps 753 mmHg 46%
    10:00 +26°C° 0 mm 3 mps 753 mmHg 42%
    11:00 +26°C° 0 mm 3 mps 753 mmHg 39%
    12:00 +27°C° 0 mm 2 mps 753 mmHg 36%
    13:00 +28°C° 0 mm 2 mps 752 mmHg 33%
    14:00 +28°C° 0 mm 2 mps 752 mmHg 33%
    15:00 +29°C° 0 mm 2 mps 752 mmHg 32%
    16:00 +29°C° 0 mm 2 mps 752 mmHg 32%
    17:00 +28°C° 0 mm 2 mps 752 mmHg 36%
    18:00 +27°C° 0 mm 2 mps 752 mmHg 41%
    19:00 +26°C° 0 mm 2 mps 751 mmHg 46%
    20:00 +25°C° 0 mm 3 mps 751 mmHg 48%
    21:00 +22°C° 0 mm 3 mps 751 mmHg 50%
    22:00 +21°C° 0 mm 3 mps 751 mmHg 52%
    23:00 +21°C° 0 mm 4 mps 751 mmHg 54%

    Day after tomorrow, 3 June, Wednesday

    Time Temperature Precipitation Wind Pressure Humidity
    00:00 +20°C° 0 mm 4 mps 751 mmHg 56%
    01:00 +20°C° 0 mm 5 mps 750 mmHg 58%
    02:00 +20°C° 0 mm 5 mps 750 mmHg 60%
    03:00 +19°C° 0 mm 5 mps 750 mmHg 62%
    04:00 +19°C° 0 mm 4 mps 750 mmHg 64%
    05:00 +19°C° 0 mm 5 mps 750 mmHg 63%
    06:00 +20°C° 0 mm 5 mps 750 mmHg 62%
    07:00 +21°C° 0 mm 5 mps 750 mmHg 61%
    08:00 +22°C° 0 mm 5 mps 750 mmHg 56%
    09:00 +25°C° 0 mm 5 mps 750 mmHg 51%
    10:00 +27°C° 0 mm 5 mps 749 mmHg 47%
    11:00 +28°C° 0 mm 5 mps 749 mmHg 43%
    12:00 +29°C° 0 mm 5 mps 749 mmHg 39%
    13:00 +30°C° 0 mm 6 mps 749 mmHg 35%
    14:00 +30°C° 0 mm 6 mps 749 mmHg 35%
    15:00 +30°C° 0 mm 6 mps 749 mmHg 35%
    16:00 +30°C° 0 mm 6 mps 749 mmHg 35%
    17:00 +30°C° 0 mm 6 mps 748 mmHg 40%
    18:00 +29°C° 0 mm 5 mps 748 mmHg 45%
    19:00 +28°C° 0 mm 5 mps 748 mmHg 50%
    20:00 +26°C° 0 mm 6 mps 748 mmHg 54%
    21:00 +24°C° 0 mm 6 mps 747 mmHg 57%
    22:00 +23°C° 0 mm 7 mps 747 mmHg 60%
    23:00 +22°C° 0 mm 6 mps 747 mmHg 63%

    4 June, Thursday

    Time Temperature Precipitation Wind Pressure Humidity
    00:00 +22°C° 0 mm 6 mps 747 mmHg 66%
    01:00 +21°C° 0 mm 6 mps 747 mmHg 68%
    02:00 +21°C° 0.2 mm 5 mps 747 mmHg 69%
    03:00 +20°C° 0.2 mm 5 mps 747 mmHg 69%
    04:00 +20°C° 0.2 mm 4 mps 747 mmHg 70%
    05:00 +20°C° 0.5 mm 5 mps 747 mmHg 70%
    06:00 +20°C° 0.5 mm 6 mps 747 mmHg 70%
    07:00 +20°C° 0.5 mm 7 mps 747 mmHg 70%
    08:00 +21°C° 0.3 mm 7 mps 747 mmHg 67%
    09:00 +22°C° 0.3 mm 8 mps 747 mmHg 63%
    10:00 +23°C° 0.3 mm 8 mps 746 mmHg 60%
    11:00 +24°C° 0.4 mm 8 mps 747 mmHg 59%
    12:00 +26°C° 0.4 mm 7 mps 747 mmHg 57%
    13:00 +27°C° 0.4 mm 7 mps 747 mmHg 56%
    14:00 +27°C° 0 mm 7 mps 747 mmHg 54%
    15:00 +28°C° 0 mm 7 mps 747 mmHg 53%
    16:00 +28°C° 0 mm 6 mps 747 mmHg 51%
    17:00 +27°C° 0.4 mm 6 mps 747 mmHg 56%
    18:00 +26°C° 0.4 mm 6 mps 747 mmHg 60%
    19:00 +24°C° 0.4 mm 6 mps 747 mmHg 64%
    20:00 +22°C° 0.8 mm 6 mps 747 mmHg 67%
    21:00 +21°C° 0.8 mm 6 mps 748 mmHg 70%
    22:00 +20°C° 0.8 mm 6 mps 748 mmHg 73%
    23:00 +20°C° 0.9 mm 6 mps 748 mmHg 74%

    5 June, Friday

    Time Temperature Precipitation Wind Pressure Humidity
    00:00 +19°C° 0.9 mm 6 mps 748 mmHg 76%
    01:00 +19°C° 0.9 mm 5 mps 749 mmHg 77%
    02:00 +19°C° 0.9 mm 6 mps 749 mmHg 75%
    03:00 +17°C° 0.9 mm 7 mps 749 mmHg 73%
    04:00 +17°C° 0.9 mm 7 mps 749 mmHg 71%
    05:00 +17°C° 0.5 mm 7 mps 749 mmHg 70%
    06:00 +17°C° 0.5 mm 7 mps 750 mmHg 69%
    07:00 +17°C° 0.5 mm 7 mps 750 mmHg 67%
    08:00 +18°C° 0.4 mm 7 mps 750 mmHg 66%
    09:00 +18°C° 0.4 mm 7 mps 750 mmHg 65%
    10:00 +20°C° 0.4 mm 7 mps 751 mmHg 63%
    11:00 +21°C° 0.2 mm 6 mps 751 mmHg 61%
    12:00 +22°C° 0.2 mm 6 mps 751 mmHg 59%
    13:00 +23°C° 0.2 mm 5 mps 751 mmHg 57%
    14:00 +23°C° 0 mm 5 mps 751 mmHg 57%
    15:00 +23°C° 0 mm 4 mps 751 mmHg 58%
    16:00 +23°C° 0 mm 4 mps 751 mmHg 58%
    17:00 +23°C° 0 mm 5 mps 751 mmHg 57%
    18:00 +22°C° 0 mm 6 mps 751 mmHg 56%
    19:00 +21°C° 0 mm 7 mps 751 mmHg 55%
    20:00 +20°C° 0 mm 7 mps 752 mmHg 54%
    21:00 +18°C° 0 mm 8 mps 752 mmHg 54%
    22:00 +17°C° 0 mm 8 mps 752 mmHg 54%
    23:00 +17°C° 0.2 mm 7 mps 752 mmHg 56%

    6 June, Saturday

    Time Temperature Precipitation Wind Pressure Humidity
    00:00 +16°C° 0.2 mm 6 mps 752 mmHg 58%
    01:00 +16°C° 0.2 mm 5 mps 752 mmHg 61%
    02:00 +16°C° 0.4 mm 5 mps 752 mmHg 65%
    03:00 +15°C° 0.4 mm 4 mps 752 mmHg 69%
    04:00 +15°C° 0.4 mm 4 mps 752 mmHg 74%
    05:00 +15°C° 0.1 mm 4 mps 752 mmHg 75%
    06:00 +15°C° 0.1 mm 4 mps 752 mmHg 76%
    07:00 +15°C° 0.1 mm 4 mps 752 mmHg 77%
    08:00 +17°C° 0.1 mm 4 mps 753 mmHg 73%
    09:00 +19°C° 0.1 mm 3 mps 753 mmHg 69%
    10:00 +20°C° 0.1 mm 3 mps 753 mmHg 64%
    11:00 +21°C° 0.7 mm 3 mps 753 mmHg 61%
    12:00 +23°C° 0.7 mm 2 mps 753 mmHg 58%
    13:00 +24°C° 0.7 mm 2 mps 753 mmHg 54%
    14:00 +24°C° 0.9 mm 3 mps 753 mmHg 55%
    15:00 +24°C° 0.9 mm 3 mps 753 mmHg 55%
    16:00 +24°C° 0.9 mm 3 mps 753 mmHg 55%
    17:00 +24°C° 0.3 mm 3 mps 753 mmHg 59%
    18:00 +22°C° 0.3 mm 3 mps 753 mmHg 64%
    19:00 +21°C° 0.3 mm 3 mps 753 mmHg 68%
    20:00 +19°C° 0 mm 3 mps 753 mmHg 73%
    21:00 +18°C° 0 mm 2 mps 753 mmHg 79%
    22:00 +16°C° 0 mm 2 mps 754 mmHg 84%
    23:00 +16°C° 0 mm 2 mps 754 mmHg 85%
    Show more